| time (UTC) | temp F | wind direction | speed MPH | gust MPH | rain 1hr in | rain 24hr in | rain mn in | humidity % | barometer mb |
| 20260503201528 | 63 | 241 | 2.0 | 15.0 | 0.00 | 0.00 | 0.00 | 50 | 1006.8 |
| 20260503200016 | 62 | 266 | 8.0 | 18.0 | 0.00 | 0.00 | 0.00 | 50 | 1007.1 |
| 20260503194529 | 62 | 257 | 8.0 | 17.0 | 0.00 | 0.00 | 0.00 | 49 | 1007.4 |
| 20260503193004 | 62 | 248 | 8.0 | 20.0 | 0.00 | 0.00 | 0.00 | 49 | 1007.6 |
| 20260503191549 | 63 | 284 | 11.0 | 17.0 | 0.00 | 0.00 | 0.00 | 46 | 1007.6 |
| 20260503190023 | 63 | 281 | 9.0 | 21.0 | 0.00 | 0.00 | 0.00 | 44 | 1007.6 |
| 20260503184515 | 62 | 300 | 4.0 | 21.0 | 0.00 | 0.00 | 0.00 | 49 | 1007.7 |
| 20260503183028 | 63 | 249 | 8.0 | 15.0 | 0.00 | 0.00 | 0.00 | 47 | 1008.0 |
| 20260503181507 | 62 | 248 | 4.0 | 12.0 | 0.00 | 0.00 | 0.00 | 48 | 1008.3 |
| 20260503180011 | 61 | 206 | 5.0 | 14.0 | 0.00 | 0.00 | 0.00 | 50 | 1008.6 |
| 20260503174513 | 60 | 255 | 8.0 | 16.0 | 0.00 | 0.00 | 0.00 | 51 | 1008.8 |
| 20260503173018 | 59 | 271 | 9.0 | 15.0 | 0.00 | 0.00 | 0.00 | 55 | 1009.1 |
| 20260503171523 | 58 | 236 | 7.0 | 16.0 | 0.00 | 0.00 | 0.00 | 56 | 1009.3 |
| 20260503081527 | 47 | 266 | 4.0 | 8.0 | 0.00 | 0.00 | 0.00 | 54 | 1012.9 |
| 20260503071513 | 47 | 251 | 3.0 | 8.0 | 0.00 | 0.00 | 0.00 | 52 | 1013.3 |
| 20260503054520 | 47 | 271 | 1.0 | 6.0 | 0.00 | 0.00 | 0.00 | 53 | 1014.0 |
| 20260503053029 | 46 | 269 | 1.0 | 5.0 | 0.00 | 0.00 | 0.00 | 53 | 1014.1 |
| 20260503051510 | 46 | 273 | 1.0 | 3.0 | 0.00 | 0.00 | 0.00 | 54 | 1014.2 |
| 20260503050012 | 47 | 293 | 0.0 | 4.0 | 0.00 | 0.00 | 0.00 | 54 | 1014.2 |
| 20260503044515 | 47 | 280 | 0.0 | 4.0 | 0.00 | 0.00 | 0.00 | 53 | 1014.3 |
| 20260503043024 | 47 | 250 | 0.0 | 5.0 | 0.00 | 0.00 | 0.00 | 53 | 1014.4 |
| 20260503041524 | 46 | 244 | 1.0 | 4.0 | 0.00 | 0.00 | 0.00 | 54 | 1014.5 |
| 20260503040010 | 46 | 254 | 0.0 | 2.0 | 0.00 | 0.00 | 0.00 | 57 | 1014.7 |
| 20260503034515 | 45 | 263 | 0.0 | 1.0 | 0.00 | 0.00 | 0.00 | 57 | 1014.7 |
| 20260503033020 | 45 | 269 | 0.0 | 1.0 | 0.00 | 0.00 | 0.00 | 59 | 1014.8 |
| 20260503031522 | 46 | 273 | 0.0 | 1.0 | 0.00 | 0.00 | 0.00 | 58 | 1014.9 |
| 20260503030029 | 44 | 262 | 0.0 | 1.0 | 0.00 | 0.00 | 0.00 | 59 | 1015.1 |
| 20260503024514 | 44 | 226 | 0.0 | 0.0 | 0.00 | 0.00 | 0.00 | 63 | 1015.2 |
| 20260503023013 | 44 | 226 | 0.0 | 0.0 | 0.00 | 0.00 | 0.00 | 62 | 1015.4 |
| 20260503021522 | 44 | 226 | 0.0 | 0.0 | 0.00 | 0.00 | 0.00 | 59 | 1015.3 |
| 20260503020028 | 45 | 226 | 0.0 | 0.0 | 0.00 | 0.00 | 0.00 | 59 | 1015.2 |
| 20260503014528 | 45 | 226 | 0.0 | 0.0 | 0.00 | 0.00 | 0.00 | 58 | 1015.0 |
| 20260503013037 | 46 | 226 | 0.0 | 0.0 | 0.00 | 0.00 | 0.00 | 55 | 1014.9 |
| 20260503011517 | 47 | 226 | 0.0 | 0.0 | 0.00 | 0.00 | 0.00 | 54 | 1014.8 |
| 20260503010023 | 49 | 226 | 0.0 | 0.0 | 0.00 | 0.00 | 0.00 | 51 | 1014.9 |
| 20260503004550 | 51 | 226 | 0.0 | 0.0 | 0.00 | 0.00 | 0.00 | 47 | 1015.0 |
| 20260503003042 | 53 | 264 | 0.0 | 2.0 | 0.00 | 0.00 | 0.00 | 42 | 1015.0 |
| 20260503001526 | 54 | 259 | 2.0 | 4.0 | 0.00 | 0.00 | 0.00 | 40 | 1015.1 |
| 20260503000028 | 54 | 246 | 2.0 | 4.0 | 0.00 | 0.00 | 0.00 | 38 | 1015.1 |
| 20260502234536 | 55 | 259 | 2.0 | 5.0 | 0.00 | 0.00 | 0.00 | 37 | 1015.2 |
| 20260502233038 | 55 | 224 | 3.0 | 6.0 | 0.00 | 0.00 | 0.00 | 37 | 1015.3 |
| 20260502231528 | 55 | 274 | 2.0 | 8.0 | 0.00 | 0.00 | 0.00 | 38 | 1015.4 |
| 20260502230032 | 56 | 253 | 2.0 | 9.0 | 0.00 | 0.00 | 0.00 | 38 | 1015.5 |
| 20260502224520 | 56 | 238 | 3.0 | 8.0 | 0.00 | 0.00 | 0.00 | 37 | 1015.6 |
| 20260502223036 | 55 | 278 | 3.0 | 10.0 | 0.00 | 0.00 | 0.00 | 39 | 1015.7 |
| 20260502221529 | 55 | 258 | 3.0 | 9.0 | 0.00 | 0.00 | 0.00 | 37 | 1015.9 |
| 20260502220028 | 55 | 286 | 2.0 | 8.0 | 0.00 | 0.00 | 0.00 | 37 | 1016.0 |
| 20260502214532 | 54 | 262 | 3.0 | 8.0 | 0.00 | 0.00 | 0.00 | 38 | 1016.1 |
| 20260502213028 | 55 | 270 | 3.0 | 6.0 | 0.00 | 0.00 | 0.00 | 38 | 1016.1 |
| 20260502211534 | 54 | 262 | 3.0 | 8.0 | 0.00 | 0.00 | 0.00 | 38 | 1016.3 |
| 20260502210034 | 54 | 269 | 3.0 | 10.0 | 0.00 | 0.00 | 0.00 | 38 | 1016.4 |
| 20260502204529 | 54 | 276 | 3.0 | 6.0 | 0.00 | 0.00 | 0.00 | 39 | 1016.7 |
| 20260502203029 | 55 | 337 | 3.0 | 9.0 | 0.00 | 0.00 | 0.00 | 37 | 1016.9 |